Location: Newark
(12.5331°N, 56.4669°W)
Time: 20:33:48
(UTC+00:00)

Envisat - Pass Details

Date: 04 February 2020
Orbit: 764 x 766 km, 98.1° (Epoch: 22 February)

Event Time Altitude Azimuth Distance (km) Brightness Sun altitude
Rises 22:47:48 0° 198° (SSW) 3,219 6.7 -14.8°
Reaches altitude 10° 22:50:41 10° 215° (SW) 2,293 6.2 -15.5°
Maximum altitude 22:54:17 20° 260° (W) 1,721 5.9 -16.3°
Drops below altitude 10° 22:57:53 10° 306° (NW) 2,293 6.0 -17.2°
Sets 23:00:48 0° 324° (NW) 3,219 6.5 -17.9°
